Location: Newark
(46.7636°N, 1.8358°W)
Time: 01:04:34
(UTC+00:00)

Explorer 11/Cluster Stage 4 - All Passes

Search period start: 14 October 2019 00:00
Search period end: 24 October 2019 00:00
Orbit: 467 x 1259 km, 28.8° (Epoch: 13 October)

Date Brightness Start Highest point End Pass type
(mag) Time Alt. Az. Time Alt. Az. Time Alt. Az.
14 Oct - 13:20:23 10° SSW 13:22:29 12° S 13:24:44 10° SSE daylight
14 Oct - 15:07:38 10° SSW 15:10:04 12° S 15:12:40 10° SSE daylight
15 Oct - 13:10:06 10° SSW 13:11:42 11° S 13:13:23 10° SSE daylight
15 Oct - 14:57:57 10° SSW 14:59:15 11° S 15:00:36 10° S daylight
16 Oct - 13:00:12 10° S 13:00:56 10° S 13:01:41 10° SSE daylight
